[[{"header":{"parameterUnit":"m.s-1","parameterCategory":1,"la1":30.2991,"la2":30.254,"lo1":-89.0895,"lo2":-89.0444,"dy":0.0017,"dx":0.0017,"nx":28,"ny":28,"refTime":"2024-11-25T03:00:00:Z","depth":0,"parameterNumber":2,"parameterNumberName":"U-component_of_WINDS"},"data":[0,0,0,0,0,0,0,0,0,0,0,0,0,0,0,0,0,0,0,0,0,0,0,0,0,0,0,0,0,0,0,0,0,0,0,0,0,0,0,0,0,0,0,0,0,0,0,0,0,0,0,0,0,0,0,0,0,0,2.5558,2.5561,0,2.5897,2.59,2.5904,2.5915,2.591,2.5906,2.5902,2.6264,2.6277,2.6291,0,0,0,0,0,0,0,0,0,0,0,0,0,2.4934,2.4946,2.5557,2.5561,2.5566,2.5896,2.5901,2.5905,2.5915,2.591,2.5905,2.59,2.626,2.6276,2.6292,0,0,0,0,0,0,0,0,0,0,0,0,0,2.5233,2.4949,2.5556,2.561,2.5618,2.5895,2.5901,2.5907,2.5916,2.591,2.5904,2.5898,2.6255,2.6274,2.6294,2.6545,0,0,2.6356,2.6365,0,0,0,0,0,0,0,0,2.5216,2.5256,2.5598,2.5607,2.5616,2.5856,2.5814,2.6121,2.5918,2.5804,2.5902,2.5895,2.6135,2.6164,2.6242,2.6562,2.6577,2.6358,2.637,2.6379,2.6385,0,0,0,0,0,0,0,2.5195,2.5241,2.5692,2.5603,2.5614,2.5623,2.5658,2.5872,2.6001,2.5813,2.5815,2.5854,2.6139,2.6223,2.6251,2.6583,2.6358,2.6376,2.6388,2.6396,2.7131,2.7138,0,0,0,0,0,0,2.5162,2.5224,2.5681,2.5702,2.5396,2.5639,2.5678,2.5786,2.5998,2.6024,2.5859,2.5853,2.6191,2.6227,2.6264,2.6574,2.6379,2.6398,2.641,2.7123,2.7132,2.714,0,0,0,0,0,0,2.5148,2.5202,2.5667,2.5464,2.5523,2.5656,2.5777,2.5796,2.588,2.6032,2.6057,2.592,2.6188,2.6235,2.6475,2.6587,2.6407,2.6426,2.7115,2.7126,2.7136,2.7195,0,0,0,0,0,0,2.513,2.5197,2.529,2.5465,2.5534,2.5868,2.5784,2.5807,2.5913,2.5909,2.6096,2.6122,2.6186,2.6445,2.6495,2.6612,2.6441,2.7105,2.712,2.7133,2.7184,2.7207,2.7226,0,0,0,0,0,2.5108,2.5295,2.5294,2.5349,2.5651,2.5874,2.5914,2.5981,2.5922,2.6019,2.6118,2.6116,2.6566,2.6469,2.6526,2.665,2.7099,2.7116,2.7132,2.7174,2.7202,2.7226,0,0,0,0,0,0,2.5134,2.5319,2.532,2.5568,2.5705,2.5875,2.6,2.6008,2.6167,2.6157,2.6237,2.628,2.6519,2.6609,2.6498,2.6907,2.6826,2.6855,2.6839,2.6867,2.6888,2.6863,2.6458,0,0,0,0,0,2.5167,2.5328,2.5483,2.5688,2.5756,2.5866,2.5966,2.6005,2.6151,2.6211,2.6327,2.6474,2.6649,2.6763,2.6932,2.7196,2.7241,2.7311,2.7332,2.7348,2.7373,2.7525,2.7559,2.7194,2.7194,2.7194,0,0,2.5241,2.5362,2.5459,2.5696,2.5806,2.5976,2.5915,2.6096,2.6225,2.624,2.6473,2.6564,2.6734,2.6988,2.7106,2.707,2.7483,2.7369,2.7381,2.7398,2.7545,2.758,2.761,2.7206,2.7204,2.7202,0,0,2.5461,2.5566,2.5749,2.5861,2.6028,2.61,2.6144,2.6315,2.6374,2.6608,2.6624,2.6781,2.7079,2.7201,2.7302,2.7571,2.7577,2.7624,2.7736,2.7883,2.7912,2.7938,2.8038,2.8072,2.7648,2.7648,2.7648,0,2.5532,2.5783,2.5844,2.6026,2.6133,2.615,2.634,2.6447,2.6663,2.6738,2.6694,2.707,2.7186,2.7471,2.7536,2.7616,2.7674,2.7604,2.7901,2.7928,2.7954,2.805,2.8087,2.7653,2.7652,2.7652,2.7651,0,2.5864,2.6039,2.6168,2.6372,2.6493,2.6678,2.6773,2.6889,2.6918,2.6997,2.7239,2.7378,2.7577,2.7647,2.7679,2.7939,2.7912,2.7883,2.7805,2.7992,2.8084,2.8121,2.766,2.7658,2.7656,2.7655,0,0,2.6111,2.6345,2.6392,2.6486,2.6672,2.6812,2.7001,2.7191,2.7291,2.744,2.7604,2.7857,2.7833,2.7947,2.7994,2.8122,2.8331,2.8079,2.8084,2.8124,2.8632,2.8653,2.8694,2.8335,2.8342,2.8348,2.8618,0,2.6353,2.6683,2.6745,2.7035,2.72,2.722,2.7386,2.7521,2.7601,2.7757,2.7847,2.8026,2.7978,2.8048,2.8176,2.8278,2.8435,2.8259,2.8495,2.8502,2.8453,2.8742,2.8765,2.9013,2.8654,2.8661,2.8665,0,2.668,2.6834,2.7138,2.7305,2.7377,2.7524,2.7706,2.7853,2.8009,2.8059,2.8187,2.8219,2.8422,2.8332,2.8616,2.8496,2.8596,2.8661,2.8673,2.87,2.8596,2.878,2.9094,2.9132,2.8722,2.8717,2.8713,0,2.6834,2.7117,2.7337,2.7416,2.7615,2.7719,2.7808,2.7957,2.8069,2.823,2.8304,2.8488,2.859,2.8734,2.8817,2.8743,2.9097,2.9013,2.9149,2.9147,2.9225,2.9219,2.9562,2.9284,2.9283,2.9283,2.9282,0,2.71,2.7287,2.7408,2.7544,2.7756,2.7828,2.8038,2.8126,2.826,2.8417,2.8447,2.8596,2.8695,2.886,2.8927,2.9155,2.92,2.925,2.9266,2.9249,2.9243,2.9318,2.9304,2.9293,2.929,2.9288,2.9287,0,2.7308,2.7395,2.7637,2.7805,2.7852,2.8002,2.8149,2.8285,2.8364,2.8564,2.8615,2.8742,2.8938,2.9034,2.9278,2.9324,2.9582,2.9586,2.9528,2.9535,2.9667,2.9655,3.0072,3.0133,2.9811,2.9814,2.9817,0,2.7473,2.7617,2.78,2.7905,2.7995,2.8165,2.8278,2.8357,2.8475,2.8665,2.878,2.8975,2.9136,2.9449,2.9567,2.9755,2.9766,2.9899,2.9795,2.9774,2.9773,2.9764,2.9781,2.9919,2.9922,2.9924,2.9926,0,2.7758,2.7795,2.7954,2.8131,2.8265,2.8409,2.8551,2.8637,2.874,2.8872,2.9069,2.9194,2.9442,2.9638,2.9835,2.9933,2.995,2.9958,3.0,2.9985,2.9947,2.9973,2.9583,2.9949,2.9946,2.9945,2.9943,2.9943,2.7953,2.8083,2.8232,2.8411,2.8525,2.8658,2.8794,2.889,2.9054,2.9259,2.9297,2.9508,2.9666,2.9931,3.0036,3.0206,3.0177,3.0237,3.0254,3.0268,3.0276,2.9917,3.0242,3.0242,3.0241,3.0241,3.024,0,2.8243,2.834,2.8503,2.8699,2.8841,2.8838,2.8996,2.9117,2.9301,2.9444,2.9601,2.9831,3.0022,3.0154,3.035,3.0461,3.0474,3.0511,3.0505,3.0528,3.0289,3.0234,3.0497,3.0497,3.0497,3.0497,3.0497,3.0497,2.8411,2.8632,2.8687,2.8967,2.9065,2.9268,2.9359,2.9484,2.9598,2.9852,3.0009,3.0092,3.0234,3.044,3.0617,3.0652,3.0725,3.0762,3.0797,3.0572,3.0545,3.0519,3.0468,3.0776,3.0776,3.1023,3.1025,3.1027]},{"header":{"parameterUnit":"m.s-1","parameterCategory":1,"la1":30.2991,"la2":30.254,"lo1":-89.0895,"lo2":-89.0444,"dy":0.0017,"dx":0.0017,"nx":28,"ny":28,"refTime":"2024-11-25T03:00:00:Z","depth":0,"parameterNumber":3,"parameterNumberName":"V-component_of_WINDS"},"data":[0,0,0,0,0,0,0,0,0,0,0,0,0,0,0,0,0,0,0,0,0,0,0,0,0,0,0,0,0,0,0,0,0,0,0,0,0,0,0,0,0,0,0,0,0,0,0,0,0,0,0,0,0,0,0,0,0,0,-3.2593,-3.2592,0,-3.2437,-3.2435,-3.2433,-3.2428,-3.243,-3.2431,-3.2433,-3.2257,-3.2251,-3.2244,0,0,0,0,0,0,0,0,0,0,0,0,0,-3.2873,-3.2868,-3.2594,-3.2592,-3.259,-3.2437,-3.2435,-3.2433,-3.2427,-3.243,-3.2432,-3.2434,-3.2259,-3.2252,-3.2244,0,0,0,0,0,0,0,0,0,0,0,0,0,-3.2737,-3.2867,-3.2594,-3.2569,-3.2565,-3.2438,-3.2435,-3.2432,-3.2427,-3.243,-3.2433,-3.2435,-3.2262,-3.2252,-3.2243,-3.2125,0,0,-3.2213,-3.2209,0,0,0,0,0,0,0,0,-3.2745,-3.2727,-3.2574,-3.257,-3.2566,-3.2455,-3.2469,-3.2329,-3.2426,-3.2479,-3.2433,-3.2437,-3.232,-3.2305,-3.2269,-3.2117,-3.2109,-3.2212,-3.2206,-3.2202,-3.2199,0,0,0,0,0,0,0,-3.2755,-3.2734,-3.2531,-3.2572,-3.2567,-3.2561,-3.2545,-3.2442,-3.2384,-3.2474,-3.2474,-3.2456,-3.2318,-3.2278,-3.2265,-3.2106,-3.2212,-3.2204,-3.2198,-3.2194,-3.1848,-3.1844,0,0,0,0,0,0,-3.2771,-3.2742,-3.2536,-3.2526,-3.2665,-3.2554,-3.2536,-3.2487,-3.2386,-3.2373,-3.2454,-3.2456,-3.2294,-3.2276,-3.2259,-3.2112,-3.2202,-3.2193,-3.2187,-3.1851,-3.1847,-3.1843,0,0,0,0,0,0,-3.2777,-3.2753,-3.2542,-3.2634,-3.2607,-3.2546,-3.2492,-3.2483,-3.2444,-3.237,-3.2358,-3.2425,-3.2295,-3.2272,-3.2159,-3.2106,-3.2189,-3.218,-3.1855,-3.185,-3.1845,-3.182,0,0,0,0,0,0,-3.2785,-3.2755,-3.2713,-3.2633,-3.2602,-3.2449,-3.2489,-3.2478,-3.2429,-3.2431,-3.234,-3.2328,-3.2296,-3.2174,-3.2149,-3.2094,-3.2172,-3.1859,-3.1853,-3.1847,-3.1825,-3.1815,-3.1806,0,0,0,0,0,-3.2795,-3.2709,-3.2711,-3.2686,-3.2549,-3.2447,-3.2428,-3.2397,-3.2425,-3.2379,-3.2332,-3.2331,-3.2117,-3.2162,-3.2135,-3.2076,-3.1862,-3.1854,-3.1847,-3.183,-3.1817,-3.1806,0,0,0,0,0,0,-3.2777,-3.2698,-3.2699,-3.2585,-3.2524,-3.2446,-3.2388,-3.2385,-3.231,-3.2314,-3.2275,-3.2254,-3.2141,-3.2097,-3.2149,-3.1956,-3.1992,-3.1979,-3.1988,-3.1976,-3.1966,-3.1977,-3.2164,0,0,0,0,0,-3.2762,-3.269,-3.2623,-3.2528,-3.2498,-3.2449,-3.2403,-3.2386,-3.2317,-3.2289,-3.2234,-3.2164,-3.2081,-3.2026,-3.1946,-3.1821,-3.1798,-3.1766,-3.1757,-3.175,-3.1737,-3.1665,-3.1649,-3.1818,-3.1818,-3.1819,0,0,-3.2725,-3.2673,-3.2629,-3.2524,-3.2474,-3.2396,-3.2426,-3.2343,-3.2283,-3.2275,-3.2165,-3.2123,-3.2041,-3.1922,-3.1866,-3.1881,-3.1686,-3.174,-3.1734,-3.1725,-3.1656,-3.164,-3.1625,-3.1813,-3.1814,-3.1815,0,0,-3.2619,-3.2575,-3.2491,-3.2442,-3.2368,-3.2336,-3.2317,-3.224,-3.2213,-3.2104,-3.2096,-3.2022,-3.1881,-3.1823,-3.1775,-3.1651,-3.1645,-3.1625,-3.1573,-3.1503,-3.149,-3.1478,-3.143,-3.1414,-3.1614,-3.1614,-3.1614,0,-3.2582,-3.247,-3.2447,-3.2364,-3.2317,-3.2313,-3.2225,-3.2176,-3.2078,-3.2042,-3.2064,-3.1887,-3.1831,-3.1697,-3.1668,-3.163,-3.1602,-3.1633,-3.1495,-3.1483,-3.1471,-3.1425,-3.1407,-3.1612,-3.1612,-3.1612,-3.1612,0,-3.2426,-3.2349,-3.2289,-3.22,-3.2146,-3.2061,-3.2021,-3.1968,-3.1956,-3.1921,-3.1808,-3.1743,-3.1649,-3.1617,-3.1602,-3.1479,-3.1491,-3.1505,-3.1539,-3.1453,-3.1409,-3.1391,-3.1609,-3.1609,-3.161,-3.161,0,0,-3.2301,-3.2204,-3.2182,-3.2141,-3.2061,-3.1998,-3.1912,-3.1826,-3.1779,-3.1712,-3.1636,-3.1518,-3.153,-3.1475,-3.1454,-3.1394,-3.1296,-3.1413,-3.1411,-3.1391,-3.1154,-3.1142,-3.1123,-3.1294,-3.1291,-3.1288,-3.116,0,-3.2184,-3.2037,-3.2014,-3.1882,-3.1808,-3.1804,-3.1728,-3.1668,-3.1633,-3.1562,-3.1521,-3.1437,-3.1461,-3.1428,-3.1369,-3.1321,-3.1247,-3.133,-3.1217,-3.1213,-3.1234,-3.11,-3.1087,-3.0969,-3.1143,-3.114,-3.1138,0,-3.2027,-3.1961,-3.1823,-3.1754,-3.1722,-3.1655,-3.1574,-3.1508,-3.1438,-3.1417,-3.1358,-3.1345,-3.125,-3.1294,-3.1161,-3.1218,-3.117,-3.114,-3.1134,-3.1119,-3.1167,-3.1077,-3.0931,-3.0912,-3.1111,-3.1113,-3.1115,0,-3.1946,-3.1823,-3.1724,-3.169,-3.1607,-3.156,-3.1522,-3.1456,-3.1406,-3.1334,-3.13,-3.1216,-3.1169,-3.1102,-3.1064,-3.11,-3.0933,-3.0973,-3.0908,-3.0909,-3.0869,-3.0871,-3.0709,-3.0845,-3.0846,-3.0846,-3.0846,0,-3.1815,-3.173,-3.1687,-3.1626,-3.1529,-3.1503,-3.1407,-3.1369,-3.1311,-3.1239,-3.123,-3.1161,-3.1118,-3.1042,-3.1012,-3.0905,-3.0884,-3.086,-3.0852,-3.0859,-3.0861,-3.0824,-3.0829,-3.0841,-3.0842,-3.0843,-3.0844,0,-3.1706,-3.1675,-3.1567,-3.1499,-3.148,-3.1412,-3.1351,-3.1289,-3.1257,-3.1165,-3.1142,-3.1088,-3.0999,-3.0957,-3.0843,-3.0823,-3.07,-3.07,-3.0725,-3.0721,-3.0657,-3.0662,-3.0462,-3.0433,-3.0592,-3.0591,-3.0589,0,-3.1623,-3.1559,-3.1486,-3.144,-3.1403,-3.1328,-3.1278,-3.125,-3.1197,-3.1115,-3.1062,-3.0973,-3.0901,-3.0756,-3.0704,-3.0617,-3.0611,-3.0548,-3.0597,-3.0606,-3.0606,-3.0609,-3.06,-3.0537,-3.0535,-3.0534,-3.0533,0,-3.1478,-3.1467,-3.1398,-3.1324,-3.1267,-3.1205,-3.1145,-3.1106,-3.1068,-3.1008,-3.092,-3.0864,-3.0752,-3.0662,-3.0573,-3.0528,-3.0521,-3.0519,-3.0498,-3.0502,-3.0518,-3.0505,-3.0696,-3.0522,-3.0523,-3.0524,-3.0524,-3.0525,-3.1377,-3.1319,-3.126,-3.1183,-3.1136,-3.1081,-3.102,-3.0982,-3.0909,-3.0819,-3.0806,-3.071,-3.0641,-3.0521,-3.0474,-3.0395,-3.0409,-3.0381,-3.0372,-3.0365,-3.036,-3.0535,-3.0379,-3.0379,-3.038,-3.038,-3.038,0,-3.1229,-3.1192,-3.1122,-3.1041,-3.098,-3.0988,-3.0922,-3.0868,-3.0786,-3.0725,-3.0656,-3.0553,-3.0466,-3.0409,-3.032,-3.0268,-3.0263,-3.0245,-3.0246,-3.0235,-3.0354,-3.0379,-3.0251,-3.0251,-3.0251,-3.0251,-3.0251,-3.0251,-3.1144,-3.1046,-3.1028,-3.0905,-3.0867,-3.0778,-3.0739,-3.0686,-3.0638,-3.0525,-3.0456,-3.0421,-3.036,-3.0268,-3.0187,-3.0172,-3.0138,-3.0119,-3.0103,-3.0214,-3.0227,-3.024,-3.0263,-3.0113,-3.0113,-2.9991,-2.999,-2.9989]}]]